| time (UTC) | temp F | wind direction | speed knots | gust knots | rain 1hr in | rain 24hr in | rain mn in | humidity % | barometer mb |
| 20260503223028 | 55 | 65 | 8.7 | 15.6 | 0.00 | 0.00 | 0.00 | 39 | 1011.6 |
| 20260503221534 | 55 | 34 | 7.8 | 13.9 | 0.00 | 0.00 | 0.00 | 41 | 1011.7 |
| 20260503220028 | 57 | 49 | 10.4 | 16.5 | 0.00 | 0.00 | 0.00 | 36 | 1011.7 |
| 20260503214526 | 56 | 96 | 10.4 | 18.2 | 0.00 | 0.00 | 0.00 | 38 | 1011.7 |
| 20260503213033 | 55 | 67 | 5.2 | 17.4 | 0.00 | 0.00 | 0.00 | 39 | 1011.6 |
| 20260503211530 | 55 | 92 | 8.7 | 14.8 | 0.00 | 0.00 | 0.00 | 37 | 1011.5 |
| 20260503210027 | 56 | 106 | 9.6 | 19.1 | 0.00 | 0.00 | 0.00 | 37 | 1011.6 |
| 20260503204530 | 55 | 39 | 7.8 | 17.4 | 0.00 | 0.00 | 0.00 | 38 | 1011.6 |
| 20260503203031 | 56 | 46 | 7.8 | 16.5 | 0.00 | 0.00 | 0.00 | 41 | 1011.6 |
| 20260503201527 | 56 | 92 | 9.6 | 20.0 | 0.00 | 0.00 | 0.00 | 38 | 1011.8 |
| 20260503200029 | 56 | 54 | 8.7 | 15.6 | 0.00 | 0.00 | 0.00 | 38 | 1011.9 |
| 20260503194530 | 55 | 65 | 7.8 | 15.6 | 0.00 | 0.00 | 0.00 | 40 | 1012.1 |
| 20260503193030 | 55 | 86 | 10.4 | 17.4 | 0.00 | 0.00 | 0.00 | 39 | 1012.2 |
| 20260503191534 | 54 | 71 | 7.8 | 13.9 | 0.00 | 0.00 | 0.00 | 42 | 1012.4 |
| 20260503190030 | 55 | 11 | 9.6 | 17.4 | 0.00 | 0.00 | 0.00 | 41 | 1012.5 |
| 20260503184528 | 55 | 40 | 10.4 | 16.5 | 0.00 | 0.00 | 0.00 | 41 | 1012.7 |
| 20260503183030 | 54 | 79 | 10.4 | 16.5 | 0.00 | 0.00 | 0.00 | 42 | 1012.8 |
| 20260503181530 | 53 | 52 | 3.5 | 15.6 | 0.00 | 0.00 | 0.00 | 42 | 1012.8 |
| 20260503180028 | 52 | 78 | 8.7 | 16.5 | 0.00 | 0.00 | 0.00 | 42 | 1013.1 |
| 20260503174527 | 53 | 66 | 9.6 | 16.5 | 0.00 | 0.00 | 0.00 | 46 | 1013.1 |
| 20260503173030 | 53 | 51 | 10.4 | 18.2 | 0.00 | 0.00 | 0.00 | 40 | 1013.1 |
| 20260503171526 | 53 | 38 | 8.7 | 19.1 | 0.00 | 0.00 | 0.00 | 44 | 1013.1 |
| 20260503081528 | 37 | 68 | 1.7 | 7.0 | 0.00 | 0.00 | 0.00 | 68 | 1013.1 |
| 20260503071526 | 37 | 130 | 2.6 | 10.4 | 0.00 | 0.00 | 0.00 | 66 | 1012.9 |
| 20260503054534 | 38 | 0 | 0.0 | 2.6 | 0.00 | 0.03 | 0.00 | 65 | 1012.9 |
| 20260503053033 | 38 | 96 | 0.0 | 5.2 | 0.00 | 0.03 | 0.00 | 65 | 1013.1 |
| 20260503051527 | 39 | 61 | 0.9 | 2.6 | 0.00 | 0.03 | 0.00 | 66 | 1013.1 |
| 20260503050037 | 39 | 88 | 0.9 | 3.5 | 0.00 | 0.03 | 0.00 | 66 | 1013.2 |
| 20260503044528 | 39 | 42 | 0.0 | 1.7 | 0.00 | 0.05 | 0.00 | 67 | 1013.2 |
| 20260503043031 | 40 | 0 | 0.9 | 2.6 | 0.00 | 0.05 | 0.00 | 67 | 1013.2 |
| 20260503041537 | 40 | 0 | 0.0 | 2.6 | 0.00 | 0.05 | 0.00 | 64 | 1013.3 |
| 20260503040029 | 41 | 47 | 1.7 | 5.2 | 0.00 | 0.05 | 0.00 | 63 | 1013.4 |
| 20260503034531 | 41 | 67 | 1.7 | 7.8 | 0.00 | 0.05 | 0.05 | 62 | 1013.4 |
| 20260503033033 | 41 | 74 | 3.5 | 8.7 | 0.00 | 0.05 | 0.05 | 63 | 1013.5 |
| 20260503031531 | 41 | 30 | 1.7 | 5.2 | 0.00 | 0.05 | 0.05 | 67 | 1013.5 |
| 20260503030036 | 41 | 43 | 1.7 | 3.5 | 0.00 | 0.05 | 0.05 | 70 | 1013.5 |
| 20260503024530 | 41 | 73 | 1.7 | 4.3 | 0.00 | 0.05 | 0.05 | 72 | 1013.6 |
| 20260503023031 | 41 | 78 | 2.6 | 5.2 | 0.00 | 0.05 | 0.05 | 71 | 1013.6 |
| 20260503021529 | 41 | 56 | 3.5 | 7.8 | 0.00 | 0.05 | 0.05 | 71 | 1013.6 |
| 20260503020030 | 41 | 32 | 2.6 | 7.0 | 0.00 | 0.05 | 0.05 | 72 | 1013.5 |
| 20260503014530 | 41 | 32 | 3.5 | 7.8 | 0.00 | 0.08 | 0.05 | 72 | 1013.4 |
| 20260503013032 | 41 | 63 | 3.5 | 7.8 | 0.00 | 0.08 | 0.05 | 73 | 1013.4 |
| 20260503011530 | 42 | 42 | 4.3 | 9.6 | 0.00 | 0.08 | 0.05 | 73 | 1013.3 |
| 20260503010032 | 42 | 55 | 3.5 | 7.8 | 0.00 | 0.08 | 0.05 | 72 | 1013.3 |
| 20260503004528 | 42 | 67 | 1.7 | 7.8 | 0.00 | 0.10 | 0.05 | 71 | 1013.2 |
| 20260503003028 | 42 | 86 | 1.7 | 6.1 | 0.00 | 0.10 | 0.05 | 70 | 1012.9 |
| 20260503001528 | 42 | 89 | 2.6 | 7.8 | 0.00 | 0.10 | 0.05 | 69 | 1012.8 |
| 20260503000029 | 42 | 96 | 1.7 | 5.2 | 0.00 | 0.10 | 0.05 | 70 | 1012.8 |
| 20260502234532 | 43 | 66 | 2.6 | 6.1 | 0.00 | 0.11 | 0.05 | 70 | 1012.8 |
| 20260502233029 | 43 | 80 | 1.7 | 6.1 | 0.00 | 0.11 | 0.05 | 69 | 1012.7 |
| 20260502231527 | 43 | 0 | 1.7 | 7.0 | 0.00 | 0.11 | 0.05 | 72 | 1012.7 |
| 20260502230034 | 43 | 83 | 1.7 | 3.5 | 0.00 | 0.11 | 0.05 | 70 | 1012.6 |
| 20260502224532 | 44 | 52 | 2.6 | 6.1 | 0.00 | 0.11 | 0.05 | 69 | 1012.5 |